Home   Weather   Toulon   Past weeks

Flag for France Past Weather in Toulon, Provence-Alpes-Côte d'Azur, France — Yesterday and Last 2 Weeks

Now
57 °F

Passing clouds.


Feels Like: 56 °F
Forecast: 39 / 56 °F
Wind: 6 mph from Northeast

Location: Hyeres Airport

Current Time: Jan 23, 2017 at 3:58:23 pm

Latest Report: Jan 23, 2017 at 3:00 pm


Visibility: N/A

Pressure: 29.98 "Hg

Humidity: 55%

Dew Point: 41 °F

Location of ToulonLocation

Past Weather in Toulon — Graph

°F

Toulon Temperature Yesterday

Maximum temperature yesterday: 57 °F (at 2:30 am)
Minimum temperature yesterday: 48 °F (at 5:00 am)
Average temperature yesterday: 50 °F

High & Low Weather Summary for the Past Weeks

 TemperatureHumidityPressure
High63 °F (Jan 12, 1:30 pm)93% (Jan 10, 7:00 pm)30.33 "Hg (Jan 10, 7:00 pm)
Low30 °F (Jan 17, 6:00 am)18% (Jan 17, 2:30 pm)29.71 "Hg (Jan 13, 6:30 am)
Average46 °F54%30.02 "Hg
* Reported Jan 8 3:00 pm — Jan 23 3:00 pm, Toulon, Weather by CustomWeather, © 2017

Note: Actual official high and low records may vary slightly from our data, if they occured in-between our weather recording intervals... More about our weather records

Advertising

Toulon Weather History for the Previous 24 Hours

Scroll right to see more
 ConditionsComfort  
Time TempWeatherWind HumidityBarometerVisibility
3:00 pm
Mon, Jan 23
57 °FPassing clouds.6 mph55%29.98 "HgN/A
2:30 pm57 °FSunny.7 mph59%29.98 "Hg10 mi
2:00 pm55 °FSunny.7 mph59%29.98 "Hg10 mi
1:30 pm55 °FSunny.6 mph59%29.98 "Hg10 mi
1:00 pm55 °FPassing clouds.10 mph55%30.01 "HgN/A
12:30 pm57 °FSunny.10 mph51%30.01 "Hg10 mi
12:00 pm57 °FPassing clouds.9 mph51%30.01 "HgN/A
11:30 am57 °FPassing clouds.12 mph48%30.01 "HgN/A
11:00 am55 °FSunny.10 mph55%30.04 "Hg10 mi
10:30 am55 °FPassing clouds.10 mph59%30.04 "HgN/A
10:00 am52 °FSunny.7 mph62%30.04 "Hg10 mi
9:30 am52 °FSunny.7 mph72%30.04 "Hg10 mi
9:00 am52 °FOvercast.6 mph67%30.04 "HgN/A
8:30 am52 °FPassing clouds.13 mph62%30.04 "HgN/A
8:00 am50 °FLight rain. Clear.8 mph71%30.04 "HgN/A
7:30 am52 °FCool.12 mph62%30.04 "HgN/A
7:00 am50 °FCool.8 mph71%30.04 "HgN/A
6:30 am50 °FPartly cloudy.8 mph67%30.04 "HgN/A
6:00 am50 °FCool.9 mph71%30.04 "HgN/A
5:30 am48 °FCool.9 mph76%30.04 "HgN/A
5:00 am48 °FClear.10 mph76%30.04 "Hg10 mi
4:30 am48 °FPassing clouds.7 mph82%30.04 "HgN/A
4:00 am48 °FCool.8 mph87%30.04 "HgN/A
3:30 am50 °FLight rain. Mostly cloudy.13 mph76%30.07 "HgN/A
3:00 am50 °FLight rain. Overcast.8 mph76%30.07 "HgN/A
2:30 am50 °FLight rain. Mostly cloudy.12 mph76%30.07 "HgN/A
2:00 am52 °FLight rain. Mostly cloudy.17 mph72%30.07 "HgN/A
1:30 am55 °FRefreshingly cool.18 mph59%30.07 "HgN/A
1:00 am55 °FRefreshingly cool.15 mph59%30.07 "HgN/A
12:30 am54 °FCool.14 mph63%30.07 "HgN/A
12:00 am54 °FCool.12 mph63%30.07 "HgN/A
11:30 pm
Sun, Jan 22
52 °FOvercast.8 mph72%30.07 "HgN/A
11:00 pm52 °FOvercast.8 mph67%30.07 "HgN/A
10:30 pm50 °FOvercast.7 mph76%30.07 "HgN/A
10:00 pm50 °FMostly cloudy.12 mph76%30.07 "HgN/A
9:30 pm50 °FDrizzle. Mostly cloudy.13 mph76%30.07 "HgN/A
9:00 pm50 °FMostly cloudy.10 mph76%30.09 "HgN/A
8:30 pm50 °FOvercast.9 mph82%30.09 "HgN/A
8:00 pm48 °FLight rain. Overcast.7 mph87%30.09 "HgN/A
7:30 pm48 °FLight rain. Mostly cloudy.8 mph87%30.09 "HgN/A
7:00 pm48 °FLight rain. Partly cloudy.12 mph87%30.09 "HgN/A
6:30 pm48 °FRain. Mostly cloudy.8 mph87%30.09 "Hg6 mi
6:00 pm50 °FRain. Overcast.15 mph82%30.09 "Hg5 mi
5:30 pm50 °FLight rain. Partly sunny.20 mph76%30.09 "HgN/A
5:00 pm52 °FMostly cloudy.16 mph72%30.07 "HgN/A
4:30 pm50 °FBroken clouds.17 mph76%30.07 "HgN/A
4:00 pm50 °FLight rain. Mostly cloudy.21 mph76%30.07 "HgN/A
3:30 pm48 °FLight rain. Mostly cloudy.15 mph87%30.09 "HgN/A
3:00 pm48 °FRain. Cloudy.14 mph87%30.09 "Hg6 mi
Weather by CustomWeather, © 2017

See weather overviewHow to use our weather pages